Location: Moscow
(55.7500°N, 37.5830°E)
Time: 13:57:20
(UTC+03:00)

Vanguard 1 - Pass Details

Date: 01 December 2021
Orbit: 652 x 3830 km, 34.2° (Epoch: 25 January)

Event Time Altitude Azimuth Distance (km) Brightness Sun altitude
Exits shadow 05:17:35 23° 236° (WSW) 5,277 13.3 -26.4°
Maximum altitude 05:25:36 30° 204° (SSW) 4,259 13.0 -25.3°
Drops below altitude 10° 05:36:50 10° 149° (SSE) 4,599 13.9 -23.7°
Sets 05:40:20 0° 139° (SE) 5,188 14.4 -23.2°
